WX4SKY Weather Reports


Display with metric or nautical units.
time (UTC)temp
F
wind
direction
speed
MPH
gust
MPH
rain 1hr
in
rain 24hr
in
rain mn
in
humidity
%
barometer
mb
20260903120104 72 0 0.0 0.0 0.00 0.00 0.00 95 1019.8
20260903114607 71 0 0.0 0.0 0.00 0.00 0.00 95 1019.5
20260903113105 71 0 0.0 0.0 0.00 0.00 0.00 95 1019.5
20260903111603 71 0 0.0 0.0 0.00 0.00 0.00 95 1019.4
20260903110058 72 0 0.0 0.0 0.00 0.00 0.00 95 1019.2
20260903104608 72 0 0.0 0.0 0.00 0.00 0.00 95 1019.1
20260903103110 72 0 0.0 0.0 0.00 0.00 0.00 95 1019.0
20260903101612 72 0 0.0 0.0 0.00 0.00 0.00 95 1018.8
20260903100059 72 0 0.0 0.0 0.00 0.00 0.00 95 1018.9
20260903094611 72 0 0.0 0.0 0.00 0.00 0.00 95 1018.9
20260903093109 72 0 0.0 0.0 0.00 0.00 0.00 95 1019.2
20260903091607 72 0 0.0 0.0 0.00 0.00 0.00 94 1019.2
20260903090106 72 0 0.0 0.0 0.00 0.00 0.00 94 1019.1
20260903084604 72 0 0.0 0.0 0.00 0.00 0.00 94 1019.1
20260903083108 73 0 0.0 0.0 0.00 0.00 0.00 94 1018.9
20260903081605 73 0 0.0 0.0 0.00 0.00 0.00 94 1019.0
20260903080111 73 0 0.0 0.0 0.00 0.00 0.00 94 1018.9
20260903074605 73 0 0.0 0.0 0.00 0.00 0.00 94 1019.1
20260903073114 73 0 0.0 0.0 0.00 0.00 0.00 94 1019.0
20260903071606 73 0 0.0 0.0 0.00 0.00 0.00 94 1018.9
20260903070109 73 0 0.0 0.0 0.00 0.00 0.00 94 1018.9
20260903064603 73 0 0.0 0.0 0.00 0.00 0.00 93 1018.9
20260903063126 74 0 0.0 0.0 0.00 0.00 0.00 93 1019.0
20260903061604 74 0 0.0 0.0 0.00 0.00 0.00 93 1019.1
20260903060104 74 0 0.0 0.0 0.00 0.00 0.00 93 1019.0
20260903054606 74 0 0.0 0.0 0.00 0.00 0.00 93 1019.1
20260903053107 74 0 0.0 0.0 0.00 0.00 0.00 93 1019.1
20260903051602 74 0 0.0 0.0 0.00 0.00 0.00 92 1019.2
20260903050107 75 0 0.0 0.0 0.00 0.00 0.00 92 1019.2
20260903044606 75 0 0.0 0.0 0.00 0.00 0.00 92 1019.1
20260903043111 75 0 0.0 0.0 0.00 0.00 0.00 92 1019.0
20260903041611 75 0 0.0 0.0 0.00 0.00 0.00 91 1019.0
20260903040112 75 0 0.0 0.0 0.00 0.00 0.00 91 1019.1
20260903034607 76 0 0.0 0.0 0.00 0.00 0.00 91 1019.2
20260903033104 76 0 0.0 0.0 0.00 0.00 0.00 90 1019.3
20260903031604 76 0 0.0 0.0 0.00 0.00 0.00 89 1019.4
20260903030110 77 0 0.0 0.0 0.00 0.00 0.00 89 1019.4
20260903024605 78 0 0.0 0.0 0.00 0.00 0.00 89 1019.3
20260903023108 78 0 0.0 0.0 0.00 0.00 0.00 87 1019.1
20260903021608 79 0 0.0 0.0 0.00 0.00 0.00 87 1019.0
20260903014603 80 0 0.0 0.0 0.00 0.00 0.00 85 1019.0
20260903013104 80 0 0.0 0.0 0.00 0.00 0.00 84 1018.9
20260903011610 80 0 0.0 0.0 0.00 0.00 0.00 84 1018.7
20260903010104 81 0 0.0 1.0 0.00 0.00 0.00 83 1018.6
20260903004626 81 0 0.0 2.0 0.00 0.00 0.00 83 1018.6
20260903003107 82 0 0.0 0.0 0.00 0.00 0.00 81 1018.3
20260903001606 83 0 0.0 0.0 0.00 0.00 0.00 80 1018.2
20260903000107 84 0 0.0 0.0 0.00 0.00 0.00 77 1018.2
20260902234605 85 0 0.0 0.0 0.00 0.00 0.00 75 1018.0
20260902233108 86 0 0.0 0.0 0.00 0.00 0.00 73 1017.9
20260902231612 86 0 0.0 0.0 0.00 0.00 0.00 71 1018.0
20260902230107 87 0 0.0 0.0 0.00 0.00 0.00 69 1018.0
20260902224607 89 0 0.0 0.0 0.00 0.00 0.00 67 1017.8
20260902223122 92 0 0.0 0.0 0.00 0.00 0.00 62 1017.9
20260902221606 94 0 0.0 0.0 0.00 0.00 0.00 59 1018.0
20260902220118 94 0 0.0 2.0 0.00 0.00 0.00 56 1018.2
20260902214621 95 0 0.0 1.0 0.00 0.00 0.00 55 1018.2
20260902213102 96 0 0.0 2.0 0.00 0.00 0.00 50 1018.3
20260902211608 96 0 0.0 2.0 0.00 0.00 0.00 54 1018.3
20260902210128 96 122 0.0 2.0 0.00 0.00 0.00 56 1018.6
20260902204643 95 80 1.0 2.0 0.00 0.00 0.00 50 1018.6
20260902203121 95 87 2.0 4.0 0.00 0.00 0.00 52 1018.8
20260902201606 93 117 0.0 2.0 0.00 0.00 0.00 57 1018.6
20260902200106 93 0 0.0 2.0 0.00 0.00 0.00 57 1018.9
20260902194606 96 0 1.0 3.0 0.00 0.00 0.00 54 1019.1
20260902193101 96 74 1.0 3.0 0.00 0.00 0.00 49 1019.3
20260902191609 94 0 0.0 2.0 0.00 0.00 0.00 52 1019.5
20260902190109 94 89 0.0 5.0 0.00 0.00 0.00 52 1019.6
20260902184607 96 82 1.0 3.0 0.00 0.00 0.00 51 1019.8
20260902183113 93 0 2.0 5.0 0.00 0.00 0.00 54 1019.9
20260902181613 94 146 0.0 3.0 0.00 0.00 0.00 56 1020.2
20260902180101 93 85 0.0 2.0 0.00 0.00 0.00 58 1020.3
20260902174608 93 0 0.0 6.0 0.00 0.00 0.00 55 1020.4
20260902173119 93 125 0.0 3.0 0.00 0.00 0.00 54 1020.5
20260902171606 91 116 0.0 2.0 0.00 0.00 0.00 59 1020.8
20260902170106 93 136 1.0 2.0 0.00 0.00 0.00 57 1020.9
20260902164608 92 69 1.0 4.0 0.00 0.00 0.00 57 1021.1
20260902163105 91 70 0.0 2.0 0.00 0.00 0.00 61 1021.1
20260902161613 90 0 1.0 6.0 0.00 0.00 0.00 62 1021.3
20260902160104 89 122 0.0 2.0 0.00 0.00 0.00 65 1021.6
20260902154605 88 108 1.0 4.0 0.00 0.00 0.00 66 1021.7
20260902153109 87 67 0.0 4.0 0.00 0.00 0.00 67 1021.7
20260902151607 87 79 1.0 7.0 0.00 0.00 0.00 69 1021.8
20260902144623 85 0 1.0 5.0 0.00 0.00 0.00 76 1021.8
20260902143106 83 0 0.0 4.0 0.00 0.00 0.00 79 1021.7
20260902141604 80 0 0.0 0.0 0.00 0.00 0.00 86 1021.7
20260902140108 77 0 0.0 0.0 0.00 0.00 0.00 94 1021.6
20260902134610 76 0 0.0 0.0 0.00 0.00 0.00 97 1021.7
20260902133112 75 0 0.0 0.0 0.00 0.00 0.00 97 1021.7
20260902131607 73 0 0.0 0.0 0.00 0.00 0.00 96 1021.6
20260902130115 72 0 0.0 0.0 0.00 0.00 0.00 96 1021.6
20260902124603 72 0 0.0 0.0 0.00 0.00 0.00 96 1021.5
20260902123112 71 0 0.0 0.0 0.00 0.00 0.00 96 1021.4
20260902121601 71 0 0.0 0.0 0.00 0.00 0.00 96 1021.3